Content
SEND FEEDBACK

Daily
Averages
Monthly
Summary
United States of America

UNION, MISSOURI


Home > North America > United States > Missouri
Elevation: 545 feet     Latitude: 38 27N     Longitude: 091 00W

WEATHER
 
SELECT A DAY
Number of Records: 50,917;   Date Range: 2/9/12 - 7/27/14
 
SHARE

PRINT THIS DATA

[ ← Previous Day ]
WEATHER ALMANAC - JANUARY 9, 2013
[ Next Day → ]
[ °C ]   °F
Weather ElementAverageHighLow
Temperature47.6 °F57.2 °F (1:55 pm)35.6 °F (8:15 am)
Dewpoint36.3 °F44.6 °F (2:35 am)26.6 °F (7:15 pm)
Humidity68.7 %100 % (3:55 am)36 % (4:15 pm)
Barometer30.36 in30.46 in (8:55 pm)30.18 in (12:35 am)
Wind Speed0.9 mph6.9 mph (11:55 pm)
Weather ElementAverage
Visibility9 mi
Wind DirectionNNE (34 °)

Weather ElementTotal
Precipitation---
Heating Degree Days18.6 (Base 65)
Averaged from 65 records on January 9, 2013
WEATHER CONDITIONS BREAKOUT
WIND DIRECTION BREAKOUT
WEATHER BY HOUR - JANUARY 9, 2013
[ °C ]   °F
Local TimeTemperatureDewpointHumidityBarometerVisibilityWind DirectionWind SpeedGust SpeedPrecipitationEventsConditions
12:35 AM48.2 °F37.4 °F66 %30.18 in10.0 miCalmOvercast
12:55 AM48.2 °F39.2 °F71 %30.19 in10.0 miCalmOvercast
1:15 AM48.2 °F41.0 °F76 %30.20 in10.0 miCalmOvercast
1:35 AM50.0 °F41.0 °F71 %30.21 in10.0 miCalmOvercast
1:55 AM48.2 °F41.0 °F76 %30.22 in7.0 miCalmRainLight Rain
2:15 AM48.2 °F42.8 °F82 %30.22 in7.0 miCalmRainLight Rain
2:35 AM48.2 °F44.6 °F87 %30.22 in10.0 miCalmOvercast
2:55 AM48.2 °F44.6 °F87 %30.23 in10.0 miCalmOvercast
3:15 AM48.2 °F44.6 °F87 %30.24 in10.0 miCalmOvercast
3:35 AM48.2 °F44.6 °F87 %30.24 in10.0 miCalmOvercast
3:55 AM44.6 °F44.6 °F100 %30.25 in10.0 miCalmMostly Cloudy
4:15 AM44.6 °F44.6 °F100 %30.26 in10.0 miCalmClear
4:35 AM42.8 °F42.8 °F100 %30.26 in10.0 miCalmClear
4:55 AM44.6 °F44.6 °F100 %30.27 in10.0 miCalmClear
5:15 AM46.4 °F44.6 °F93 %30.27 in10.0 miCalmClear
5:35 AM41.0 °F41.0 °F100 %30.28 in7.0 miCalmClear
6:15 AM39.2 °F39.2 °F100 %30.29 in7.0 miCalmClear
6:35 AM42.8 °F42.8 °F100 %30.31 in9.0 miCalmClear
6:55 AM41.0 °F41.0 °F100 %30.33 in8.0 miNNW (330°)3.5 mphClear
7:15 AM37.4 °F37.4 °F100 %30.34 in0.5 miCalmFogFog
7:35 AM37.4 °F37.4 °F100 %30.34 in0.2 miCalmFogFog
7:55 AM37.4 °F37.4 °F100 %30.35 in0.2 miCalmFogFog
8:15 AM35.6 °F35.6 °F100 %30.37 in0.8 miCalmMist
8:35 AM39.2 °F39.2 °F100 %30.38 in5.0 miCalmClear
8:55 AM41.0 °F41.0 °F100 %30.38 in10.0 miCalmClear
9:15 AM41.0 °F41.0 °F100 %30.39 in6.0 miCalmClear
9:35 AM42.8 °F41.0 °F93 %30.39 in10.0 miCalmClear
9:55 AM44.6 °F41.0 °F87 %30.40 in10.0 miCalmClear
10:15 AM44.6 °F41.0 °F87 %30.40 in10.0 miCalmClear
10:35 AM46.4 °F39.2 °F76 %30.40 in10.0 miCalmClear
10:55 AM48.2 °F39.2 °F71 %30.41 in10.0 miCalmClear
11:15 AM48.2 °F39.2 °F71 %30.40 in10.0 miCalmClear
11:55 AM50.0 °F39.2 °F66 %30.39 in10.0 miCalmClear
12:15 PM51.8 °F39.2 °F62 %30.38 in10.0 miCalmClear
12:35 PM53.6 °F39.2 °F58 %30.38 in10.0 miWNW (290°)3.5 mphClear
12:55 PM53.6 °F41.0 °F62 %30.38 in10.0 miNW (320°)4.6 mphClear
1:15 PM55.4 °F39.2 °F54 %30.38 in10.0 miCalmClear
1:35 PM55.4 °F37.4 °F51 %30.38 in10.0 miCalmClear
1:55 PM57.2 °F32.0 °F38 %30.38 in10.0 miNNW (330°)4.6 mphClear
2:15 PM57.2 °F32.0 °F38 %30.38 in10.0 miCalmClear
2:35 PM57.2 °F32.0 °F38 %30.38 in10.0 miCalmClear
2:55 PM57.2 °F32.0 °F38 %30.39 in10.0 miNorth (10°)5.8 mphClear
3:15 PM57.2 °F32.0 °F38 %30.40 in10.0 miCalmClear
3:35 PM55.4 °F32.0 °F41 %30.40 in10.0 miNorth (360°)5.8 mphClear
3:55 PM55.4 °F32.0 °F41 %30.40 in10.0 miCalmClear
4:15 PM55.4 °F28.4 °F36 %30.41 in10.0 miCalmClear
4:35 PM53.6 °F28.4 °F38 %30.40 in10.0 miCalmClear
4:55 PM53.6 °F28.4 °F38 %30.40 in10.0 miCalmClear
5:15 PM51.8 °F30.2 °F44 %30.41 in10.0 miCalmClear
5:35 PM50.0 °F32.0 °F50 %30.42 in10.0 miCalmScattered Clouds
5:55 PM50.0 °F32.0 °F50 %30.43 in10.0 miENE (60°)3.5 mphPartly Cloudy
6:15 PM48.2 °F32.0 °F54 %30.43 in10.0 miCalmPartly Cloudy
7:15 PM48.2 °F26.6 °F43 %30.44 in10.0 miNorth (10°)3.5 mphClear
7:35 PM46.4 °F28.4 °F50 %30.44 in10.0 miCalmClear
7:55 PM48.2 °F28.4 °F46 %30.44 in10.0 miNNE (20°)3.5 mphClear
8:35 PM46.4 °F28.4 °F50 %30.44 in10.0 miCalmClear
8:55 PM46.4 °F30.2 °F53 %30.46 in10.0 miCalmClear
9:15 PM46.4 °F30.2 °F53 %30.46 in10.0 miCalmClear
9:35 PM42.8 °F32.0 °F66 %30.45 in10.0 miCalmClear
10:15 PM46.4 °F28.4 °F50 %30.45 in10.0 miCalmClear
10:35 PM46.4 °F28.4 °F50 %30.44 in10.0 miCalmClear
10:55 PM46.4 °F30.2 °F53 %30.44 in10.0 miESE (110°)4.6 mphClear
11:15 PM46.4 °F28.4 °F50 %30.43 in10.0 miESE (120°)3.5 mphClear
11:35 PM46.4 °F28.4 °F50 %30.43 in10.0 miSE (130°)3.5 mphClear
11:55 PM46.4 °F28.4 °F50 %30.43 in10.0 miESE (120°)6.9 mphClear
Hourly data recorded from KFYG, located miles away from Union, Missouri







STORIES FROM OUR PARTNERS